User: anonymous   Login
Location: Petruro
(41.0333°N, 14.7833°E)
Time: 17:34:05
(UTC+00:00)
Language:

Cosmos 1655 Rocket - Orbit

View from above orbital plane
View from above orbital plane
View from above satellite
View from above satellite

Ground track
Ground track

The orbit data is extracted from the following two-line orbital elements,

1 15752U 85041B   21263.89310775  .00000114  00000-0  10649-3 0  9991
2 15752  82.9480 238.2102 0025449 119.2379 241.1325 13.73130108819246
Epoch (UTC): 20 September 2021 21:26:04
Eccentricity: 0.0025449
inclination: 82.9480°
perigee height: 969 km
apogee height: 1007 km
right ascension of ascending node: 238.2102°
argument of perigee: 119.2379°
revolutions per day: 13.73130108
mean anomaly at epoch: 241.1325°
orbit number at epoch: 81924

The dashed part of the orbit path shows where the satellite is in the earth's shadow,  

DLR